weather.gov     
National Weather Service

Regional Weather Roundup
NWS Homepage
This page is being discontinued on March 12, 2014.
The same data is available at this site. Please update your bookmarks.
Thank you, and we apologize for the inconvenience.
Please send an email to SR-SRH.Webmaster@noaa.gov with any concerns.


Current Version
Previous Version:    01  02  03  04  05  06  07  08  09  10  11  12  13  14  15  16  17  18  19  20  21  22  23  24  25  26  27  28  29  30  
   31  32  33  34  35  36  37  38  39  40  41  42  43  44  45  46  47  48  49  50  51  52  53  54  55  56  57  58  59  60  
[Printable]
496
ASUS43 KBIS 202020
RWRBIS

NWR BROADCAST TEXT
NATIONAL WEATHER SERVICE BISMARCK ND
300 PM CDT WED AUG 20 2014

NOTE: "FAIR" INDICATES FEW OR NO CLOUDS BELOW 12,000 FEET WITH NO
SIGNIFICANT WEATHER AND/OR OBSTRUCTIONS TO VISIBILITY.


CITY           SKY/WX    TMP DP  RH WIND       PRES   REMARKS
WILLISTON      RAIN      73  66  78 SW6       29.74R
MINOT          PTSUNNY   84  60  44 SE13      29.71S
MINOT AFB      PTSUNNY   83  68  60 E12G23    29.70F
BISMARCK       CLOUDY    82  68  62 SW8       29.72S
DICKINSON      RAIN      71  67  87 N8        29.72R FOG
GARRISON         N/A     71  66  84 SE5       29.74R
HETTINGER ARPT CLOUDY    81  65  58 SE10      29.72S
JAMESTOWN      CLOUDY    82  66  58 S13       29.77R
BEACH            N/A     73  57  56 NW8       29.79R
CARRINGTON     FAIR      79  68  69 SE15      29.77S
CROSBY         FAIR      75  66  73 S17       29.74R
HARVEY         FAIR      81  66  61 S13       29.74F
HAZEN          FAIR      72  63  73 E8        29.74R
LINTON         MOCLDY    81  68  65 S12       29.71S
MANDAN         MOCLDY    77  66  69 S3        29.74R
STANLEY        FAIR      77  66  69 SE8       29.74R
TIOGA          LGT RAIN  73  73 100 S7        29.78S
WATFORD CITY   MOCLDY    79  57  47 W8        29.74R
$$

CITY           SKY/WX    TMP DP  RH WIND       PRES   REMARKS
GRAND FORKS    PTSUNNY   82  68  62 SE12      29.78R
GRAND FORKS AF PTSUNNY   83  68  60 SE13      29.79R
DEVILS LAKE    PTSUNNY   82  64  54 S16G22    29.76S
FARGO          CLOUDY    84  67  56 S13G23    29.79R
CANDO          FAIR      81  66  61 S10       29.78R
CAVALIER       FAIR      82  66  57 S15       29.77F HAZE
GRAFTON        FAIR      82  66  57 S10       29.78R
GWINNER        CLEAR     82  68  61 SE14      29.79S
LANGDON        FAIR      84  64  51 S17       29.78S
ROLLA          FAIR      66  66 100 NW6       29.82R
WALHALLA       FAIR      82  68  61 S14       29.77S
$$

CITY           SKY/WX    TMP DP  RH WIND       PRES   REMARKS
ABERDEEN       PTSUNNY   83  67  58 S12       29.74S
MOBRIDGE       CLOUDY    80  68  66 SE14      29.68F
BUFFALO          N/A     84  58  40 NW12      29.66S
RAPID CITY     MOSUNNY   86  59  39 SE10      29.73F
GLASGOW        PTSUNNY   72  58  61 W10       29.77R
SIDNEY         CLOUDY    70  61  73 W12       29.76S
WOLF POINT     LGT RAIN  76  62  62 SW9       29.74R
GLENDIVE       CLOUDY    66  63  88 NE7       29.78R
MILES CITY     CLOUDY    79  55  43 N18       29.77R
BAKER          CLOUDY    71  59  65 N10       29.78S
$$

CITY           SKY/WX    TMP DP  RH WIND       PRES   REMARKS
BILLINGS       MOSUNNY   79  46  31 SW6       29.86S
GREAT FALLS    TSTM      70  48  46 NW18G26   29.84R
REGINA         LGT RAIN  68  66  94 S6        29.73R
ESTEVAN        CLOUDY    73  64  73 S12       29.73R
$$





U.S. Dept. of Commerce
NOAA National Weather Service
1325 East West Highway
Silver Spring, MD 20910
E-mail: w-nws.webmaster@noaa.gov
Page last modified: May 16, 2007
NATIONAL WEATHER SERVICE: for Safety, for Work, for Fun - FOR LIFE